,,,PA_Meas_PMT16A,,PR_Meas_QMR101_102,,RH_Meas_QMH101,,SR_Meas_QMS101,,TA_Meas_QMH101,,GenWind,,GenWind,
date,time,status,PA,status,PR,status,RH,status,SR,status,TA,status,DirAvg,status,SpdAvg,
2009-07-09, 00:00:05,VALID,1000.02,VALID,0,VALID,65.0501,VALID,0.112286,VALID,24.9093,VALID,185,VALID,3.17109,
2009-07-09, 00:01:05,VALID,1000,VALID,0,VALID,63.6615,VALID,0.112286,VALID,25.2997,VALID,179,VALID,1.56523,
2009-07-09, 00:02:05,VALID,999.988,VALID,0,VALID,62.2119,VALID,0,VALID,25.5535,VALID,176,VALID,4.32891,
2009-07-09, 00:03:05,VALID,1000.01,VALID,0,VALID,62.9978,VALID,0,VALID,25.7487,VALID,164,VALID,2.47266,
2009-07-09, 00:04:05,VALID,999.991,VALID,0,VALID,62.067,VALID,0.112286,VALID,25.8268,VALID,165,VALID,3.89609,
2009-07-09, 00:05:05,VALID,999.949,VALID,0,VALID,61.4032,VALID,0.112286,VALID,25.8659,VALID,180,VALID,3.01328,
2009-07-09, 00:06:05,VALID,999.986,VALID,0,VALID,60.6707,VALID,0.112286,VALID,25.983,VALID,194,VALID,2.8082,
2009-07-09, 00:07:05,VALID,999.989,VALID,0,VALID,61.2124,VALID,0,VALID,26.0436,VALID,179,VALID,3.81094,
2009-07-09, 00:08:05,VALID,999.937,VALID,0,VALID,60.9607,VALID,0.112286,VALID,26.0416,VALID,170,VALID,4.60664,
2009-07-09, 00:09:05,VALID,999.891,VALID,0,VALID,60.2664,VALID,0.112286,VALID,26.0416,VALID,159,VALID,3.82539,
2009-07-09, 00:10:05,VALID,999.938,VALID,0,VALID,59.9612,VALID,0,VALID,26.1197,VALID,174,VALID,4.14531,
2009-07-09, 00:11:05,VALID,999.936,VALID,0,VALID,60.953,VALID,0,VALID,26.1022,VALID,179,VALID,3.30117,
2009-07-09, 00:12:05,VALID,999.899,VALID,0,VALID,61.5253,VALID,0,VALID,26.0631,VALID,176,VALID,3.125,
2009-07-09, 00:13:05,VALID,999.86,VALID,0,VALID,61.0141,VALID,0,VALID,26.0045,VALID,191,VALID,3.07148,
2009-07-09, 00:14:05,VALID,999.826,VALID,0,VALID,59.6636,VALID,0,VALID,26.1803,VALID,185,VALID,4.45469,
2009-07-09, 00:15:05,VALID,999.811,VALID,0,VALID,60.4495,VALID,0,VALID,26.2409,VALID,174,VALID,3.06328,
2009-07-09, 00:16:05,VALID,999.769,VALID,0,VALID,60.8462,VALID,0,VALID,26.1412,VALID,177,VALID,3.49023,
2009-07-09, 00:17:05,VALID,999.762,VALID,0,VALID,61.6855,VALID,0,VALID,26.1432,VALID,151,VALID,2.84336,
2009-07-09, 00:18:05,VALID,999.747,VALID,0,VALID,61.1285,VALID,0,VALID,25.9655,VALID,170,VALID,3.00352,
2009-07-09, 00:19:05,VALID,999.761,VALID,0,VALID,61.8686,VALID,0,VALID,25.9264,VALID,176,VALID,2.6625,
2009-07-09, 00:20:05,VALID,999.739,VALID,0,VALID,60.6707,VALID,0,VALID,25.946,VALID,172,VALID,4.11445,
2009-07-09, 00:21:05,VALID,999.759,VALID,0,VALID,60.3808,VALID,0,VALID,26.0436,VALID,188,VALID,3.72383,
2009-07-09, 00:22:05,VALID,999.752,VALID,0,VALID,60.4876,VALID,0,VALID,26.1041,VALID,184,VALID,4.0043,
2009-07-09, 00:23:05,VALID,999.767,VALID,0,VALID,60.4113,VALID,0,VALID,26.1412,VALID,198,VALID,2.98906,
2009-07-09, 00:24:05,VALID,999.778,VALID,0,VALID,60.48,VALID,0,VALID,26.1412,VALID,183,VALID,3.2707,
2009-07-09, 00:25:05,VALID,999.782,VALID,0,VALID,61.1056,VALID,0,VALID,26.0631,VALID,182,VALID,2.2457,
2009-07-09, 00:26:05,VALID,999.812,VALID,0,VALID,61.2811,VALID,0,VALID,26.0436,VALID,195,VALID,1.73906,
2009-07-09, 00:27:05,VALID,999.803,VALID,0,VALID,60.892,VALID,0,VALID,26.0221,VALID,187,VALID,2.82734,
2009-07-09, 00:28:05,VALID,999.774,VALID,0,VALID,60.2664,VALID,0,VALID,26.0221,VALID,190,VALID,2.24688,
2009-07-09, 00:29:05,VALID,999.815,VALID,0,VALID,60.0299,VALID,0.112286,VALID,26.1002,VALID,185,VALID,2.31602,
2009-07-09, 00:30:05,VALID,999.819,VALID,0,VALID,60.274,VALID,0,VALID,26.1392,VALID,189,VALID,1.8793,
2009-07-09, 00:31:05,VALID,999.842,VALID,0,VALID,60.3579,VALID,0,VALID,26.1588,VALID,187,VALID,2.16875,
2009-07-09, 00:32:05,VALID,999.874,VALID,0,VALID,60.335,VALID,0,VALID,26.2173,VALID,184,VALID,2.13789,
2009-07-09, 00:33:05,VALID,999.866,VALID,0,VALID,60.5716,VALID,0,VALID,26.2173,VALID,171,VALID,3.20586,
2009-07-09, 00:34:05,VALID,999.898,VALID,0,VALID,60.3656,VALID,0,VALID,26.1588,VALID,196,VALID,2.53516,
2009-07-09, 00:35:05,VALID,999.858,VALID,0,VALID,60.1367,VALID,0,VALID,26.1998,VALID,190,VALID,2.17227,
2009-07-09, 00:36:05,VALID,999.861,VALID,0,VALID,60.7699,VALID,0,VALID,26.1803,VALID,165,VALID,1.95703,
2009-07-09, 00:37:05,VALID,999.872,VALID,0,VALID,63.1275,VALID,0,VALID,26.0045,VALID,155,VALID,2.14531,
2009-07-09, 00:38:05,VALID,999.869,VALID,0,VALID,67.9265,VALID,0,VALID,25.6902,VALID,97,VALID,1.78516,
2009-07-09, 00:39:05,VALID,999.848,VALID,0,VALID,69.0099,VALID,0,VALID,25.3602,VALID,94,VALID,1.09453,
2009-07-09, 00:40:05,VALID,999.869,VALID,0,VALID,70.5664,VALID,0,VALID,25.0655,VALID,107,VALID,0.55625,
2009-07-09, 00:41:05,VALID,999.885,VALID,0,VALID,71.6116,VALID,0,VALID,24.8508,VALID,94,VALID,0.556641,
2009-07-09, 00:42:05,VALID,999.917,VALID,0,VALID,71.9702,VALID,0,VALID,24.6751,VALID,101,VALID,0.764063,
2009-07-09, 00:43:05,VALID,999.942,VALID,0,VALID,73.2901,VALID,0,VALID,24.558,VALID,94,VALID,0.406641,
2009-07-09, 00:44:05,VALID,999.927,VALID,0,VALID,74.2972,VALID,0,VALID,24.4214,VALID,92,VALID,0.633203,
2009-07-09, 00:45:05,VALID,999.947,VALID,0,VALID,75.3654,VALID,0,VALID,24.2848,VALID,94,VALID,0.710156,
2009-07-09, 00:46:05,VALID,999.946,VALID,0,VALID,75.785,VALID,0,VALID,24.1305,VALID,93,VALID,0.810938,
2009-07-09, 00:47:05,VALID,999.902,VALID,0,VALID,76.5861,VALID,0,VALID,24.0134,VALID,79,VALID,1.15898,
2009-07-09, 00:48:05,VALID,999.899,VALID,0,VALID,77.0515,VALID,0,VALID,23.8945,VALID,107,VALID,0.694922,
2009-07-09, 00:49:05,VALID,999.854,VALID,0,VALID,77.6161,VALID,0,VALID,23.836,VALID,103,VALID,0.796484,
2009-07-09, 00:50:05,VALID,999.87,VALID,0,VALID,78.3333,VALID,0,VALID,23.7189,VALID,157,VALID,0.304688,
2009-07-09, 00:51:05,VALID,999.794,VALID,0,VALID,78.7224,VALID,0,VALID,23.5628,VALID,216,VALID,0.357031,
2009-07-09, 00:52:05,VALID,999.772,VALID,0,VALID,78.5393,VALID,0,VALID,23.5256,VALID,216,VALID,0.190625,
2009-07-09, 00:53:05,VALID,999.786,VALID,0,VALID,76.342,VALID,0,VALID,23.5256,VALID,182,VALID,0.571094,
2009-07-09, 00:54:05,VALID,999.772,VALID,0,VALID,72.7332,VALID,0.112286,VALID,23.5628,VALID,157,VALID,1.85898,
2009-07-09, 00:55:05,VALID,999.802,VALID,0,VALID,74.3049,VALID,0,VALID,23.9354,VALID,111,VALID,1.7625,
2009-07-09, 00:56:05,VALID,999.752,VALID,0,VALID,75.724,VALID,0,VALID,24.0116,VALID,86,VALID,1.68203,
2009-07-09, 00:57:05,VALID,999.753,VALID,0,VALID,72.0541,VALID,0,VALID,24.0525,VALID,86,VALID,1.36758,
2009-07-09, 00:58:05,VALID,999.773,VALID,0,VALID,75.2815,VALID,0,VALID,24.1696,VALID,92,VALID,1.83164,
2009-07-09, 00:59:05,VALID,999.743,VALID,0,VALID,75.3425,VALID,0,VALID,24.1305,VALID,72,VALID,1.09297,
2009-07-09, 01:00:05,VALID,999.797,VALID,0,VALID,75.1441,VALID,0,VALID,24.0311,VALID,128,VALID,0.889844,
2009-07-09, 01:01:05,VALID,999.778,VALID,0,VALID,70.6808,VALID,0,VALID,23.9921,VALID,124,VALID,2.23008,
2009-07-09, 01:02:05,VALID,999.802,VALID,0,VALID,73.5572,VALID,0,VALID,24.2671,VALID,115,VALID,1.1875,
2009-07-09, 01:03:05,VALID,999.794,VALID,0,VALID,73.2215,VALID,0,VALID,24.2848,VALID,85,VALID,1.42344,
2009-07-09, 01:04:05,VALID,999.82,VALID,0,VALID,74.0836,VALID,0,VALID,24.2848,VALID,78,VALID,0.880078,
2009-07-09, 01:05:05,VALID,999.792,VALID,0,VALID,75.0297,VALID,0.112286,VALID,24.1872,VALID,143,VALID,0.282031,
2009-07-09, 01:06:05,VALID,999.802,VALID,0,VALID,75.0602,VALID,0,VALID,24.1092,VALID,101,VALID,0.734766,
2009-07-09, 01:07:05,VALID,999.828,VALID,0,VALID,74.4117,VALID,0,VALID,24.072,VALID,112,VALID,1.11992,
2009-07-09, 01:08:05,VALID,999.808,VALID,0,VALID,76.2199,VALID,0,VALID,24.0311,VALID,149,VALID,1.09766,
2009-07-09, 01:09:05,VALID,999.764,VALID,0,VALID,76.4793,VALID,0,VALID,23.9531,VALID,112,VALID,0.39375,
2009-07-09, 01:10:05,VALID,999.822,VALID,0,VALID,76.9295,VALID,0,VALID,23.875,VALID,121,VALID,1.62031,
2009-07-09, 01:11:05,VALID,999.788,VALID,0,VALID,78.0281,VALID,0,VALID,23.8183,VALID,123,VALID,1.13555,
2009-07-09, 01:12:05,VALID,999.781,VALID,0,VALID,78.669,VALID,0,VALID,23.7012,VALID,109,VALID,0.737891,
2009-07-09, 01:13:05,VALID,999.789,VALID,0,VALID,79.2336,VALID,0,VALID,23.5841,VALID,149,VALID,0.540234,
2009-07-09, 01:14:05,VALID,999.799,VALID,0,VALID,79.5006,VALID,0,VALID,23.5079,VALID,201,VALID,1.06289,
2009-07-09, 01:15:05,VALID,999.798,VALID,0,VALID,79.287,VALID,0,VALID,23.4671,VALID,175,VALID,1.26328,
2009-07-09, 01:16:05,VALID,999.75,VALID,0,VALID,79.8974,VALID,0,VALID,23.4671,VALID,138,VALID,1.29453,
2009-07-09, 01:17:05,VALID,999.766,VALID,0,VALID,80.1949,VALID,0,VALID,23.428,VALID,136,VALID,1.31289,
2009-07-09, 01:18:05,VALID,999.645,VALID,0,VALID,79.6075,VALID,0,VALID,23.389,VALID,141,VALID,1.43047,
2009-07-09, 01:19:05,VALID,999.649,VALID,0,VALID,79.3175,VALID,0,VALID,23.4085,VALID,114,VALID,1.81016,
2009-07-09, 01:20:05,VALID,999.629,VALID,0,VALID,79.5998,VALID,0,VALID,23.4688,VALID,139,VALID,1.24453,
2009-07-09, 01:21:05,VALID,999.621,VALID,0,VALID,79.3557,VALID,0,VALID,23.4688,VALID,136,VALID,1.40977,
2009-07-09, 01:22:05,VALID,999.598,VALID,0,VALID,79.5312,VALID,0,VALID,23.4671,VALID,121,VALID,1.5582,
2009-07-09, 01:23:05,VALID,999.578,VALID,0,VALID,79.3175,VALID,0,VALID,23.4688,VALID,147,VALID,1.70039,
2009-07-09, 01:24:05,VALID,999.556,VALID,0,VALID,79.905,VALID,0,VALID,23.4475,VALID,137,VALID,1.0582,
2009-07-09, 01:25:05,VALID,999.553,VALID,0,VALID,77.8069,VALID,0,VALID,23.428,VALID,163,VALID,2.45977,
2009-07-09, 01:26:05,VALID,999.531,VALID,0,VALID,77.1965,VALID,0,VALID,23.5451,VALID,165,VALID,2.40234,
2009-07-09, 01:27:05,VALID,999.454,VALID,0,VALID,76.3267,VALID,0,VALID,23.7207,VALID,156,VALID,2.27578,
2009-07-09, 01:28:05,VALID,999.471,VALID,0,VALID,76.2733,VALID,0,VALID,23.8183,VALID,162,VALID,2.51641,
2009-07-09, 01:29:05,VALID,999.491,VALID,0,VALID,75.4341,VALID,0,VALID,23.9159,VALID,157,VALID,2.51523,
2009-07-09, 01:30:05,VALID,999.473,VALID,0,VALID,76.5709,VALID,0,VALID,23.9939,VALID,126,VALID,2.32852,
2009-07-09, 01:31:05,VALID,999.495,VALID,0,VALID,77.4483,VALID,0,VALID,23.8963,VALID,134,VALID,2.04492,
2009-07-09, 01:32:05,VALID,999.514,VALID,0,VALID,77.1889,VALID,0,VALID,23.8201,VALID,157,VALID,1.9668,
2009-07-09, 01:33:05,VALID,999.529,VALID,0,VALID,77.7001,VALID,0,VALID,23.7207,VALID,160,VALID,1.4957,
2009-07-09, 01:34:05,VALID,999.487,VALID,0,VALID,77.1126,VALID,0,VALID,23.7012,VALID,156,VALID,0.909375,
2009-07-09, 01:35:05,VALID,999.51,VALID,0,VALID,77.4635,VALID,0,VALID,23.6817,VALID,178,VALID,0.84375,
2009-07-09, 01:36:05,VALID,999.47,VALID,0,VALID,77.9671,VALID,0,VALID,23.6427,VALID,163,VALID,0.633984,
2009-07-09, 01:37:05,VALID,999.476,VALID,0,VALID,78.257,VALID,0,VALID,23.6036,VALID,158,VALID,0.465625,
2009-07-09, 01:38:05,VALID,999.464,VALID,0,VALID,78.2418,VALID,0,VALID,23.5859,VALID,131,VALID,1.2793,
2009-07-09, 01:39:05,VALID,999.481,VALID,0,VALID,78.4706,VALID,0,VALID,23.4884,VALID,129,VALID,1.2418,
2009-07-09, 01:40:05,VALID,999.502,VALID,0,VALID,78.7148,VALID,0,VALID,23.428,VALID,136,VALID,1.73164,
2009-07-09, 01:41:05,VALID,999.51,VALID,0,VALID,80.1644,VALID,0,VALID,23.35,VALID,101,VALID,2.36289,
2009-07-09, 01:42:05,VALID,999.519,VALID,0,VALID,81.3928,VALID,0,VALID,23.2134,VALID,107,VALID,1.69258,
2009-07-09, 01:43:05,VALID,999.541,VALID,0,VALID,82.316,VALID,0,VALID,23.0769,VALID,108,VALID,1.79531,
2009-07-09, 01:44:05,VALID,999.533,VALID,0,VALID,82.8958,VALID,0,VALID,22.9598,VALID,99,VALID,1.54922,
2009-07-09, 01:45:05,VALID,999.527,VALID,0,VALID,83.346,VALID,0,VALID,22.8232,VALID,87,VALID,1.73711,
2009-07-09, 01:46:05,VALID,999.59,VALID,0,VALID,83.7961,VALID,0,VALID,22.7469,VALID,82,VALID,1.34727,
2009-07-09, 01:47:04,VALID,999.586,VALID,0,VALID,84.2997,VALID,0,VALID,22.6672,VALID,78,VALID,0.914844,
2009-07-09, 01:48:04,VALID,999.63,VALID,0,VALID,84.4217,VALID,0,VALID,22.5892,VALID,59,VALID,0.879687,
2009-07-09, 01:49:04,VALID,999.647,VALID,0,VALID,84.3912,VALID,0,VALID,22.4916,VALID,19,VALID,0.450391,
2009-07-09, 01:50:04,VALID,999.633,VALID,0,VALID,86.1003,VALID,0,VALID,22.4136,VALID,348,VALID,1.27383,
2009-07-09, 01:51:04,VALID,999.683,VALID,0,VALID,87.7177,VALID,0,VALID,22.3178,VALID,5,VALID,1.28711,
2009-07-09, 01:52:04,VALID,999.685,VALID,0,VALID,88.496,VALID,0,VALID,22.199,VALID,333,VALID,1.15898,
2009-07-09, 01:53:04,VALID,999.684,VALID,0,VALID,88.7172,VALID,0,VALID,22.1015,VALID,346,VALID,1.27969,
2009-07-09, 01:54:04,VALID,999.692,VALID,0,VALID,88.5417,VALID,0,VALID,22.043,VALID,4,VALID,1.38242,
2009-07-09, 01:55:04,VALID,999.658,VALID,0,VALID,88.5494,VALID,0,VALID,22.004,VALID,14,VALID,1.82578,
2009-07-09, 01:56:04,VALID,999.714,VALID,0,VALID,88.3892,VALID,0,VALID,21.9845,VALID,25,VALID,1.31875,
2009-07-09, 01:57:04,VALID,999.685,VALID,0,VALID,88.3357,VALID,0,VALID,21.9862,VALID,35,VALID,1.63281,
2009-07-09, 01:58:04,VALID,999.677,VALID,0,VALID,88.2823,VALID,0,VALID,21.9455,VALID,38,VALID,1.72266,
2009-07-09, 01:59:04,VALID,999.653,VALID,0,VALID,88.2289,VALID,0,VALID,21.9667,VALID,53,VALID,1.43047,
2009-07-09, 02:00:04,VALID,999.659,VALID,0,VALID,88.351,VALID,0,VALID,21.9455,VALID,57,VALID,1.73867,
2009-07-09, 02:01:04,VALID,999.665,VALID,0,VALID,88.4731,VALID,0,VALID,21.965,VALID,67,VALID,1.45195,
2009-07-09, 02:02:04,VALID,999.626,VALID,0,VALID,88.8317,VALID,0,VALID,21.965,VALID,75,VALID,1.32578,
2009-07-09, 02:03:04,VALID,999.612,VALID,0,VALID,89.2818,VALID,0,VALID,22.0057,VALID,79,VALID,1.60234,
2009-07-09, 02:04:04,VALID,999.591,VALID,0,VALID,89.1292,VALID,0,VALID,21.965,VALID,100,VALID,1.40859,
2009-07-09, 02:05:04,VALID,999.56,VALID,0,VALID,89.6175,VALID,0,VALID,22.004,VALID,68,VALID,0.992578,
2009-07-09, 02:06:04,VALID,999.533,VALID,0,VALID,89.6557,VALID,0,VALID,21.9845,VALID,70,VALID,0.192969,
2009-07-09, 02:07:04,VALID,999.534,VALID,0,VALID,89.8006,VALID,0,VALID,21.9455,VALID,304,VALID,0.440234,
2009-07-09, 02:08:04,VALID,999.476,VALID,0,VALID,89.8769,VALID,0,VALID,21.926,VALID,303,VALID,0.198047,
2009-07-09, 02:09:04,VALID,999.481,VALID,0,VALID,88.7477,VALID,0,VALID,21.9472,VALID,216,VALID,0.340234,
2009-07-09, 02:10:04,VALID,999.445,VALID,0,VALID,87.0921,VALID,0,VALID,21.9845,VALID,172,VALID,0.757813,
2009-07-09, 02:11:04,VALID,999.423,VALID,0,VALID,85.5433,VALID,0,VALID,22.2202,VALID,156,VALID,1.15859,
2009-07-09, 02:12:04,VALID,999.393,VALID,0,VALID,85.0626,VALID,0,VALID,22.4543,VALID,147,VALID,0.516406,
2009-07-09, 02:13:04,VALID,999.401,VALID,0,VALID,84.2463,VALID,0,VALID,22.5714,VALID,136,VALID,0.701172,
2009-07-09, 02:14:04,VALID,999.397,VALID,0,VALID,84.5362,VALID,0,VALID,22.6884,VALID,121,VALID,0.987891,
2009-07-09, 02:15:04,VALID,999.387,VALID,0,VALID,85.1237,VALID,0,VALID,22.7274,VALID,115,VALID,0.962109,
2009-07-09, 02:16:04,VALID,999.418,VALID,0,VALID,86.2681,VALID,0,VALID,22.6867,VALID,126,VALID,1.07969,
2009-07-09, 02:17:04,VALID,999.407,VALID,0,VALID,86.9853,VALID,0,VALID,22.6282,VALID,123,VALID,1.05039,
2009-07-09, 02:18:04,VALID,999.418,VALID,0,VALID,87.1608,VALID,0,VALID,22.5306,VALID,114,VALID,1.1,
2009-07-09, 02:19:04,VALID,999.426,VALID,0,VALID,87.3897,VALID,0,VALID,22.4526,VALID,127,VALID,1.68711,
2009-07-09, 02:20:04,VALID,999.397,VALID,0,VALID,87.4507,VALID,0,VALID,22.4543,VALID,144,VALID,0.973828,
2009-07-09, 02:21:04,VALID,999.361,VALID,0,VALID,87.466,VALID,0,VALID,22.4136,VALID,118,VALID,1.76211,
2009-07-09, 02:22:04,VALID,999.347,VALID,0,VALID,87.2905,VALID,0,VALID,22.4136,VALID,114,VALID,1.21797,
2009-07-09, 02:23:04,VALID,999.337,VALID,0,VALID,87.4507,VALID,0,VALID,22.4331,VALID,102,VALID,0.691406,
2009-07-09, 02:24:04,VALID,999.377,VALID,0,VALID,87.6109,VALID,0,VALID,22.4136,VALID,116,VALID,0.592188,
2009-07-09, 02:25:04,VALID,999.354,VALID,0,VALID,87.8703,VALID,0,VALID,22.4153,VALID,121,VALID,0.585547,
2009-07-09, 02:26:04,VALID,999.346,VALID,0,VALID,87.9695,VALID,0,VALID,22.3958,VALID,112,VALID,1.58281,
2009-07-09, 02:27:04,VALID,999.355,VALID,0,VALID,88.2137,VALID,0,VALID,22.3551,VALID,109,VALID,1.7043,
2009-07-09, 02:28:04,VALID,999.326,VALID,0,VALID,88.7172,VALID,0,VALID,22.3356,VALID,114,VALID,1.57734,
2009-07-09, 02:29:04,VALID,999.327,VALID,0,VALID,88.6562,VALID,0,VALID,22.3178,VALID,107,VALID,1.54297,
2009-07-09, 02:30:04,VALID,999.305,VALID,0,VALID,88.6486,VALID,0,VALID,22.3178,VALID,111,VALID,1.35273,
2009-07-09, 02:31:04,VALID,999.301,VALID,0,VALID,88.7477,VALID,0,VALID,22.2966,VALID,106,VALID,1.05781,
2009-07-09, 02:32:04,VALID,999.246,VALID,0,VALID,88.618,VALID,0,VALID,22.2966,VALID,99,VALID,0.907422,
2009-07-09, 02:33:04,VALID,999.248,VALID,0,VALID,88.4807,VALID,0,VALID,22.2966,VALID,91,VALID,0.656641,
2009-07-09, 02:34:04,VALID,999.225,VALID,0,VALID,88.2137,VALID,0,VALID,22.2576,VALID,54,VALID,0.714844,
2009-07-09, 02:35:04,VALID,999.22,VALID,0,VALID,87.6262,VALID,0,VALID,22.2592,VALID,23,VALID,0.9,
2009-07-09, 02:36:04,VALID,999.25,VALID,0,VALID,87.9771,VALID,0,VALID,22.1795,VALID,16,VALID,0.746484,
2009-07-09, 02:37:04,VALID,999.206,VALID,0,VALID,88.1908,VALID,0,VALID,22.1405,VALID,7,VALID,0.81875,
2009-07-09, 02:38:04,VALID,999.219,VALID,0,VALID,88.3815,VALID,0,VALID,22.0837,VALID,348,VALID,0.914844,
2009-07-09, 02:39:04,VALID,999.256,VALID,0,VALID,88.6257,VALID,0,VALID,22.0252,VALID,348,VALID,0.712891,
2009-07-09, 02:40:04,VALID,999.231,VALID,0,VALID,88.8088,VALID,0,VALID,21.9667,VALID,354,VALID,0.917578,
2009-07-09, 02:41:04,VALID,999.222,VALID,0,VALID,88.8774,VALID,0,VALID,21.8887,VALID,355,VALID,0.998047,
2009-07-09, 02:42:04,VALID,999.209,VALID,0,VALID,89.2666,VALID,0,VALID,21.8106,VALID,355,VALID,1.35664,
2009-07-09, 02:43:04,VALID,999.231,VALID,0,VALID,89.2437,VALID,0,VALID,21.731,VALID,6,VALID,1.23945,
2009-07-09, 02:44:04,VALID,999.219,VALID,0,VALID,89.1826,VALID,0,VALID,21.692,VALID,12,VALID,1.21953,
2009-07-09, 02:45:04,VALID,999.168,VALID,0,VALID,88.7935,VALID,0,VALID,21.6936,VALID,23,VALID,1.64648,
2009-07-09, 02:46:04,VALID,999.203,VALID,0,VALID,88.7554,VALID,0,VALID,21.6335,VALID,26,VALID,1.67578,
2009-07-09, 02:47:04,VALID,999.212,VALID,0,VALID,88.7172,VALID,0,VALID,21.614,VALID,35,VALID,1.3332,
2009-07-09, 02:48:04,VALID,999.132,VALID,0,VALID,88.8851,VALID,0,VALID,21.5945,VALID,28,VALID,1.92773,
2009-07-09, 02:49:04,VALID,999.176,VALID,0,VALID,88.6486,VALID,0,VALID,21.6351,VALID,31,VALID,1.65469,
2009-07-09, 02:50:04,VALID,999.198,VALID,0,VALID,88.5646,VALID,0,VALID,21.6546,VALID,43,VALID,1.32813,
2009-07-09, 02:51:04,VALID,999.145,VALID,0,VALID,88.7325,VALID,0,VALID,21.653,VALID,54,VALID,1.71914,
2009-07-09, 02:52:04,VALID,999.14,VALID,0,VALID,88.6943,VALID,0,VALID,21.6936,VALID,59,VALID,1.5707,
2009-07-09, 02:53:04,VALID,999.067,VALID,0,VALID,88.7859,VALID,0,VALID,21.7115,VALID,58,VALID,1.4832,
2009-07-09, 02:54:04,VALID,999.041,VALID,0,VALID,88.8774,VALID,0,VALID,21.7326,VALID,53,VALID,1.55586,
2009-07-09, 02:55:04,VALID,999.006,VALID,0,VALID,88.8469,VALID,0,VALID,21.7326,VALID,66,VALID,1.15,
2009-07-09, 02:56:04,VALID,998.962,VALID,0,VALID,88.8851,VALID,0,VALID,21.692,VALID,67,VALID,0.909766,
2009-07-09, 02:57:04,VALID,998.959,VALID,0,VALID,88.9919,VALID,0,VALID,21.7115,VALID,66,VALID,0.859375,
2009-07-09, 02:58:04,VALID,998.929,VALID,0,VALID,89.0529,VALID,0,VALID,21.692,VALID,60,VALID,0.880859,
2009-07-09, 02:59:04,VALID,998.94,VALID,0,VALID,89.1445,VALID,0,VALID,21.6936,VALID,47,VALID,1.18516,
2009-07-09, 03:00:04,VALID,998.959,VALID,0,VALID,89.0987,VALID,0,VALID,21.7326,VALID,83,VALID,0.844141,
2009-07-09, 03:01:04,VALID,998.935,VALID,0,VALID,89.114,VALID,0,VALID,21.731,VALID,82,VALID,0.201953,
2009-07-09, 03:02:04,VALID,998.913,VALID,0,VALID,89.1979,VALID,0,VALID,21.7716,VALID,81,VALID,0.301953,
2009-07-09, 03:03:04,VALID,998.934,VALID,0,VALID,89.32,VALID,0,VALID,21.731,VALID,80,VALID,0.251172,
2009-07-09, 03:04:04,VALID,998.915,VALID,0,VALID,89.3505,VALID,0,VALID,21.7115,VALID,80,VALID,0.148047,
2009-07-09, 03:05:04,VALID,998.903,VALID,0,VALID,89.5565,VALID,0,VALID,21.7131,VALID,72,VALID,0.564453,
2009-07-09, 03:06:04,VALID,998.811,VALID,0,VALID,89.5489,VALID,0,VALID,21.6936,VALID,43,VALID,0.687109,
2009-07-09, 03:07:04,VALID,998.842,VALID,0,VALID,89.4954,VALID,0,VALID,21.6335,VALID,29,VALID,0.935156,
2009-07-09, 03:08:04,VALID,998.836,VALID,0,VALID,89.5031,VALID,0.112286,VALID,21.614,VALID,29,VALID,0.953516,
2009-07-09, 03:09:04,VALID,998.853,VALID,0,VALID,89.5412,VALID,0.112286,VALID,21.614,VALID,27,VALID,0.974219,
2009-07-09, 03:10:04,VALID,998.838,VALID,0,VALID,89.7854,VALID,0,VALID,21.5945,VALID,45,VALID,0.577344,
2009-07-09, 03:11:04,VALID,998.866,VALID,0,VALID,89.8617,VALID,0,VALID,21.5945,VALID,28,VALID,0.532812,
2009-07-09, 03:12:04,VALID,998.871,VALID,0,VALID,90.4797,VALID,0,VALID,21.5945,VALID,29,VALID,1.22422,
2009-07-09, 03:13:04,VALID,998.914,VALID,0,VALID,90.4873,VALID,0,VALID,21.5555,VALID,27,VALID,1.32734,
2009-07-09, 03:14:04,VALID,998.907,VALID,0,VALID,90.4339,VALID,0,VALID,21.536,VALID,23,VALID,1.12656,
2009-07-09, 03:15:04,VALID,998.912,VALID,0,VALID,89.8464,VALID,0,VALID,21.4775,VALID,13,VALID,1.43438,
2009-07-09, 03:16:04,VALID,998.89,VALID,0,VALID,89.4649,VALID,0,VALID,21.458,VALID,3,VALID,1.50273,
2009-07-09, 03:17:04,VALID,998.863,VALID,0,VALID,89.3276,VALID,0,VALID,21.5165,VALID,1,VALID,1.52891,
2009-07-09, 03:18:04,VALID,998.9,VALID,0,VALID,89.1979,VALID,0,VALID,21.497,VALID,360,VALID,1.77695,
2009-07-09, 03:19:04,VALID,998.921,VALID,0,VALID,89.114,VALID,0,VALID,21.536,VALID,327,VALID,0.676953,
2009-07-09, 03:20:04,VALID,998.891,VALID,0,VALID,88.3357,VALID,0,VALID,21.575,VALID,356,VALID,1.29766,
2009-07-09, 03:21:04,VALID,998.867,VALID,0,VALID,87.9237,VALID,0,VALID,21.614,VALID,15,VALID,0.802734,
2009-07-09, 03:22:04,VALID,998.865,VALID,0,VALID,87.5575,VALID,0,VALID,21.6335,VALID,15,VALID,0.787891,
2009-07-09, 03:23:04,VALID,998.852,VALID,0,VALID,87.4583,VALID,0,VALID,21.6335,VALID,28,VALID,1.07617,
2009-07-09, 03:24:04,VALID,998.813,VALID,0,VALID,87.9619,VALID,0,VALID,21.575,VALID,41,VALID,1.30156,
2009-07-09, 03:25:04,VALID,998.8,VALID,0,VALID,88.4426,VALID,0,VALID,21.5165,VALID,55,VALID,0.860547,
2009-07-09, 03:26:04,VALID,998.81,VALID,0,VALID,88.8774,VALID,0.112286,VALID,21.4775,VALID,72,VALID,0.873438,
2009-07-09, 03:27:04,VALID,998.785,VALID,0,VALID,89.0987,VALID,0,VALID,21.3995,VALID,79,VALID,0.741406,
2009-07-09, 03:28:04,VALID,998.773,VALID,0,VALID,89.2589,VALID,0,VALID,21.3605,VALID,78,VALID,1.18789,
2009-07-09, 03:29:04,VALID,998.79,VALID,0,VALID,89.32,VALID,0,VALID,21.341,VALID,80,VALID,1.19883,
2009-07-09, 03:30:04,VALID,998.79,VALID,0,VALID,89.3886,VALID,0,VALID,21.3215,VALID,81,VALID,1.08047,
2009-07-09, 03:31:04,VALID,998.756,VALID,0,VALID,89.2818,VALID,0,VALID,21.3215,VALID,83,VALID,0.790625,
2009-07-09, 03:32:04,VALID,998.77,VALID,0,VALID,89.526,VALID,0,VALID,21.302,VALID,113,VALID,1.11016,
2009-07-09, 03:33:04,VALID,998.799,VALID,0,VALID,90.2508,VALID,0,VALID,21.3215,VALID,129,VALID,0.705469,
2009-07-09, 03:34:04,VALID,998.76,VALID,0,VALID,90.3576,VALID,0.112286,VALID,21.302,VALID,129,VALID,0.284766,
2009-07-09, 03:35:04,VALID,998.74,VALID,0,VALID,90.5254,VALID,0,VALID,21.2825,VALID,130,VALID,0.542578,
2009-07-09, 03:36:04,VALID,998.736,VALID,0,VALID,90.7543,VALID,0,VALID,21.263,VALID,130,VALID,0.546875,
2009-07-09, 03:37:04,VALID,998.712,VALID,0,VALID,90.7085,VALID,0.112286,VALID,21.2825,VALID,128,VALID,0.519531,
2009-07-09, 03:38:04,VALID,998.732,VALID,0,VALID,90.472,VALID,0,VALID,21.2825,VALID,128,VALID,0.294531,
2009-07-09, 03:39:04,VALID,998.757,VALID,0,VALID,90.1211,VALID,0.112286,VALID,21.263,VALID,125,VALID,0.967188,
2009-07-09, 03:40:04,VALID,998.723,VALID,0,VALID,90.0448,VALID,0,VALID,21.2435,VALID,121,VALID,0.783984,
2009-07-09, 03:41:04,VALID,998.712,VALID,0,VALID,90.06,VALID,0,VALID,21.2256,VALID,120,VALID,0.283594,
2009-07-09, 03:42:04,VALID,998.69,VALID,0,VALID,90.0219,VALID,0,VALID,21.2256,VALID,120,VALID,0,
2009-07-09, 03:43:04,VALID,998.728,VALID,0,VALID,90.2813,VALID,0,VALID,21.2061,VALID,120,VALID,0.166016,
2009-07-09, 03:44:04,VALID,998.717,VALID,0,VALID,90.5483,VALID,0,VALID,21.2451,VALID,121,VALID,0.339844,
2009-07-09, 03:45:04,VALID,998.743,VALID,0,VALID,90.4415,VALID,0,VALID,21.2646,VALID,121,VALID,0.39375,
2009-07-09, 03:46:04,VALID,998.758,VALID,0,VALID,90.3957,VALID,0,VALID,21.2646,VALID,120,VALID,0.512891,